This demonstration page uses our WeatherBlox Daily Observations layout. Learn more.

Left ArrowRight Arrow

41.55636, -103.73856

Hourly Observations for February 2, 2016

Temp ( °F °C ) Dew Point ( °F °C ) Humidity (%) Winds ( mph kmh ) Pressure ( in mb ) Visibility ( mi km ) Precip ( " mm )
12:05 am 00:05 Cloudy with Light Snow 26 -3.3 24 -4.4 92 92 ENE 12 19 29.97 1015 1 1.60934 0.01 0.254
12:53 am 00:53 Windy with Snow Likely 26 -3.3 22 -5.6 84 84 ENE 20 31 29.87 1012 2.5 4.02335 0.02 0.508
1:53 am 01:53 Cloudy with Light Snow 26 -3.3 22 -5.6 84 84 NE 18 30 29.88 1012 2.5 4.02335 N/A
1:59 am 01:59 Cloudy with Light Snow 26 -3.3 22 -5.6 84 84 NE 18 30 29.94 1014 3 4.82802 N/A
2:53 am 02:53 Cloudy with Light Snow 25 -3.9 21 -6.1 85 85 NE 17 28 29.9 1012 6 9.65604 N/A
3:53 am 03:53 Cloudy with Light Snow 25 -3.9 21 -6.1 85 85 NNE 18 30 29.88 1012 5 8.0467 N/A
4:53 am 04:53 Cloudy 25 -3.9 19 -7.2 78 78 NNE 22 35 29.88 1012 10 16.0934 N/A
5:53 am 05:53 Cloudy 24 -4.4 19 -7.2 81 81 N 16 26 29.9 1013 10 16.0934 N/A
6:53 am 06:53 Cloudy with Mist and Fog 24 -4.4 20 -6.7 84 84 NNE 20 31 29.93 1014 6 9.65604 N/A
7:44 am 07:44 Cloudy with Haze 25 -4 19 -7 80 80 N 16 26 30.03 1017 2.5 4.02335 N/A
7:53 am 07:53 Cloudy with Haze 25 -3.9 20 -6.7 81 81 N 17 28 29.95 1014 2.5 4.02335 N/A
8:12 am 08:12 Cloudy with Haze 25 -4 19 -7 80 80 N 17 28 30.03 1017 3 4.82802 N/A
8:53 am 08:53 Cloudy with Haze 26 -3.3 20 -6.7 78 78 N 15 24 29.96 1014 6 9.65604 N/A
9:53 am 09:53 Cloudy 27 -2.8 20 -6.7 75 75 N 13 20 29.97 1015 10 16.0934 N/A
10:53 am 10:53 Mostly Cloudy 27 -2.8 20 -6.7 75 75 N 17 28 29.98 1015 10 16.0934 N/A
11:53 am 11:53 Cloudy 28 -2.2 20 -6.7 72 72 N 20 31 29.98 1015 10 16.0934 N/A
12:53 pm 12:53 Cloudy with Light Snow 28 -2.2 21 -6.1 75 75 NNW 14 22 29.97 1015 3 4.82802 N/A
1:21 pm 13:21 Cloudy with Light Snow 27 -2.8 21 -6.1 78 78 NNW 16 26 30.06 1018 2 3.21868 N/A
1:35 pm 13:35 Cloudy with Light Wintry Mix 28 -2.2 21 -6.1 75 75 NNW 17 28 30.03 1017 5 8.0467 N/A
1:53 pm 13:53 Cloudy with Light Wintry Mix 28 -2.2 20 -6.7 72 72 NNW 16 26 29.97 1015 10 16.0934 N/A
2:53 pm 14:53 Cloudy with Light Snow 26 -3.3 20 -6.7 78 78 N 14 22 30 1016 5 8.0467 N/A
3:53 pm 15:53 Cloudy 26 -3.3 17 -8.3 69 69 N 10 17 30.02 1017 10 16.0934 N/A
4:53 pm 16:53 Cloudy 24 -4.4 17 -8.3 75 75 NNW 9 15 30.05 1018 10 16.0934 N/A
5:53 pm 17:53 Cloudy 22 -5.6 17 -8.3 82 82 NW 6 9 30.09 1019 10 16.0934 N/A
6:53 pm 18:53 Cloudy 21 -6.1 16 -8.9 81 81 NW 6 9 30.09 1019 10 16.0934 N/A
7:53 pm 19:53 Cloudy 19 -7.2 15 -9.4 84 84 NW 6 9 30.1 1019 10 16.0934 N/A
8:53 pm 20:53 Cloudy 21 -6.1 17 -8.3 85 85 NW 7 11 30.09 1019 10 16.0934 N/A
9:53 pm 21:53 Mostly Cloudy with Light Snow 23 -5 19 -7.2 85 85 WNW 10 17 30.09 1019 5 8.0467 N/A
10:03 pm 22:03 Cloudy with Light Snow 23 -5 19 -7 86 86 W 12 19 30.15 1021 4 6.43736 N/A
10:10 pm 22:10 Cloudy with Light Snow 23 -5 19 -7 86 86 WNW 12 19 30.15 1021 3 4.82802 N/A
10:53 pm 22:53 Cloudy with Light Snow 21 -6.1 17 -8.3 85 85 WNW 10 17 30.1 1019 6 9.65604 N/A
11:29 pm 23:29 Mostly Cloudy 19 -7.2 16 -8.9 88 88 WNW 9 15 30.24 1024 10 16.0934 N/A
11:53 pm 23:53 Mostly Cloudy 17 -8.3 13 -10.6 84 84 WNW 9 15 30.11 1020 10 16.0934 N/A

Powered by AerisWeather